LiveATC.Net - Listen to live air traffic control over the Internet!


ICAO: LBBG  IATA: BOJ   Airport: Burgas International Airport
City: Burgas
Country: Bulgaria   Continent: Europe
LBBG METAR Weather: LBBG 101230Z 16006KT CAVOK 14/M00 Q1022 NOSIG
LBBG Flight Activity (FlightAware)
LBBG Twr/App
Feed Status: DOWN
Last heard on: 2016-12-09 07:09:03 (1 days 5 hours 31 minutes ago)
LBBG Twr/App Audio Archives
FacilityFrequency
Burgas Approach125.100
Burgas Tower118.000


NOTICE

Unauthorized use prohibited. See LiveATC.net Terms of Service


Find LiveATC Audio Streams


Airport/ARTCC Code

Frequency
(e.g., 124.400, 128.75)
Site-wide search

Browse LiveATC Feeds
LiveATC Coverage Map
Top 50 LiveATC Feeds
Bad Weather Areas

LiveATC FAQ
Offer a LiveATC Feed
Contact LiveATC.net
Press Inquiries

LiveATC on iPhone
LiveATC on Android

Windows Phone
Windows 8/10

LiveATC Mobile
(Mobile browser)

ATC Audio Archives
Interesting Recordings

LiveATC Forums


Home Page
About LiveATC.net
Make a Donation
LiveATC Store

Terms of Use
Privacy Policy

Canadian Air Freqs

AIRMETs/SIGMETs

FAA Airport Status
Nat'l Airspace Status
Arrival Demand Charts


Server Software By:
Icecast.org
Liquidsoap